Date String (YYYY-MM-DD hh:mm:ss) UTC,Instrument flags,absolute air pressure of the measurement (hPa),sample flow rate (lpm),inlet stack bypass flow (lpm),air temperature of the measurement (°C),ambient temperature measured by the external sensor (°C),aerosol sample conditioner tube jacket temperature (°C),OPC LED temperature (°C),internal box temperature (°C),relative humidity of the measurement (%),span deviation,mass concentration of particles derived from Lorenz-Mie calculation of OPC scattering (μg/m³),mass concentration of particles derived from Lorenz-Mie calculation of OPC scattering (μg/m³),mass concentration of particles derived from Lorenz-Mie calculation of OPC scattering (μg/m³)
DateTimeUTC,F1_M11,P_M11,Q1_M11,Q2_M11,T1_M11,T2_M11,T3_M11,T4_M11,T5_M11,U1_M11,ZSPAN_M11,X0_M11,X2_M11,X1_M11
2024-03-12 17:00:00,SystemResetWarning,0824.5,5.01,000.00,020.3,019.7,000.0,028.7,022.0,13.8,0000.0,0008.58,0002.79,0001.28
2024-03-12 17:01:00,SystemResetWarning,0824.5,5.00,000.00,020.3,019.7,000.0,028.7,022.0,13.8,0000.0,0008.52,0002.82,0001.28
2024-03-12 17:02:00,SystemResetWarning,0824.5,5.00,000.00,020.3,019.7,000.0,028.7,022.0,13.8,0000.0,0008.38,0002.89,0001.29
2024-03-12 17:03:00,SystemResetWarning,0824.5,5.00,000.00,020.3,019.7,000.0,028.7,022.0,13.7,0000.0,0008.37,0003.01,0001.31
2024-03-12 17:04:00,SystemResetWarning,0824.6,4.99,000.00,020.3,019.7,000.0,028.7,022.0,13.7,0000.0,0008.38,0003.03,0001.31
2024-03-12 17:05:00,SystemResetWarning,0824.6,5.00,000.00,020.3,019.7,000.0,028.7,022.0,13.8,0000.0,0008.37,0003.04,0001.30
2024-03-12 17:06:00,SystemResetWarning,0824.6,5.00,000.00,020.3,019.7,000.0,028.7,022.0,13.8,0000.0,0008.34,0003.05,0001.28
2024-03-12 17:07:00,SystemResetWarning,0824.5,5.00,000.00,020.3,019.7,000.0,028.7,022.0,13.9,0000.0,0008.02,0003.02,0001.27
2024-03-12 17:08:00,SystemResetWarning,0824.5,5.00,000.00,020.3,019.7,000.0,028.7,022.0,13.9,0000.0,0007.28,0003.03,0001.27
2024-03-12 17:09:00,SystemResetWarning,0824.5,5.00,000.00,020.3,019.6,000.0,028.7,022.0,14.3,0000.0,0006.89,0002.97,0001.27
2024-03-12 17:10:00,SystemResetWarning,0824.5,5.00,000.00,020.3,019.7,000.0,028.7,022.0,14.6,0000.0,0006.67,0002.90,0001.29
2024-03-12 17:11:00,SystemResetWarning,0824.5,5.00,000.00,020.3,019.7,000.0,028.7,022.0,14.9,0000.0,0006.33,0002.79,0001.29
2024-03-12 17:12:00,SystemResetWarning,0824.5,4.99,000.00,020.3,019.7,000.0,028.7,022.1,14.7,0000.0,0006.37,0002.75,0001.29
2024-03-12 17:13:00,SystemResetWarning,0824.5,5.00,000.00,020.3,019.7,000.0,028.7,022.0,14.2,0000.0,0006.30,0002.73,0001.30
2024-03-12 17:14:00,SystemResetWarning,0824.6,5.00,000.00,020.3,019.7,000.0,028.7,022.1,14.0,0000.0,0006.25,0002.61,0001.28
2024-03-12 17:15:00,SystemResetWarning,0824.5,5.00,000.00,020.3,019.7,000.0,028.7,022.0,13.5,0000.0,0007.17,0002.63,0001.29
2024-03-12 17:16:00,SystemResetWarning,0824.6,5.01,000.00,020.3,019.7,000.0,028.7,022.0,13.4,0000.0,0007.25,0002.69,0001.30
2024-03-12 17:17:00,SystemResetWarning,0824.7,5.01,000.00,020.3,019.7,000.0,028.7,022.0,13.3,0000.0,0007.45,0002.71,0001.30
2024-03-12 17:18:00,SystemResetWarning,0824.7,4.99,000.00,020.3,019.7,000.0,028.7,022.1,13.6,0000.0,0007.67,0002.77,0001.30
2024-03-12 17:19:00,SystemResetWarning,0824.7,4.99,000.00,020.3,019.7,000.0,028.7,022.1,13.6,0000.0,0007.75,0002.78,0001.31
2024-03-12 17:20:00,SystemResetWarning,0824.7,5.00,000.00,020.3,019.7,000.0,028.7,022.1,13.9,0000.0,0007.80,0002.81,0001.32
2024-03-12 17:21:00,SystemResetWarning,0824.7,5.00,000.00,020.3,019.7,000.0,028.7,022.1,14.0,0000.0,0007.76,0002.77,0001.32
2024-03-12 17:22:00,SystemResetWarning,0824.7,5.00,000.00,020.3,019.7,000.0,028.7,022.1,14.0,0000.0,0007.72,0002.76,0001.33
2024-03-12 17:23:00,SystemResetWarning,0824.7,5.01,000.00,020.4,019.7,000.0,028.7,022.1,13.9,0000.0,0007.74,0002.83,0001.34
2024-03-12 17:24:00,SystemResetWarning,0824.7,5.01,000.00,020.4,019.7,000.0,028.7,022.1,13.7,0000.0,0007.73,0002.81,0001.33
2024-03-12 17:25:00,SystemResetWarning,0824.7,5.00,000.00,020.4,019.7,000.0,028.7,022.1,13.6,0000.0,0007.65,0002.79,0001.33
2024-03-12 17:26:00,SystemResetWarning,0824.6,4.99,000.00,020.4,019.8,000.0,028.7,022.1,13.8,0000.0,0007.60,0002.83,0001.33
2024-03-12 17:27:00,SystemResetWarning,0824.6,4.99,000.00,020.4,019.8,000.0,028.7,022.1,13.8,0000.0,0007.82,0002.83,0001.35
2024-03-12 17:28:00,SystemResetWarning,0824.5,5.01,000.00,020.4,019.8,000.0,028.7,022.1,13.5,0000.0,0007.52,0002.84,0001.39
2024-03-12 17:29:00,SystemResetWarning,0824.6,5.01,000.00,020.4,019.8,000.0,028.7,022.1,13.1,0000.0,0007.55,0002.83,0001.42
2024-03-12 17:30:00,SystemResetWarning,0824.6,5.01,000.00,020.4,019.8,000.0,028.7,022.2,13.1,0000.0,0008.45,0002.80,0001.44
2024-03-12 17:31:00,SystemResetWarning,0824.6,4.99,000.00,020.4,019.8,000.0,028.7,022.2,13.2,0000.0,0008.47,0002.76,0001.43
2024-03-12 17:32:00,SystemResetWarning,0824.5,4.99,000.00,020.4,019.8,000.0,028.8,022.2,12.8,0000.0,0009.41,0002.82,0001.42
2024-03-12 17:33:00,SystemResetWarning,0824.5,5.01,000.00,020.4,019.8,000.0,028.8,022.2,12.8,0000.0,0009.65,0002.92,0001.40
2024-03-12 17:34:00,SystemResetWarning,0824.4,5.01,000.00,020.4,019.8,000.0,028.8,022.1,12.8,0000.0,0010.04,0002.96,0001.39
2024-03-12 17:35:00,SystemResetWarning,0824.4,4.98,000.00,020.4,019.8,000.0,028.8,022.2,12.7,0000.0,0010.48,0003.02,0001.39
2024-03-12 17:36:00,SystemResetWarning,0824.4,4.99,000.00,020.4,019.8,000.0,028.8,022.2,12.6,0000.0,0010.77,0003.10,0001.41
2024-03-12 17:37:00,SystemResetWarning,0824.4,5.02,000.00,020.4,019.8,000.0,028.8,022.2,12.7,0000.0,0010.44,0003.10,0001.42
2024-03-12 17:38:00,SystemResetWarning,0824.5,4.99,000.00,020.4,019.8,000.0,028.8,022.2,12.9,0000.0,0010.05,0003.07,0001.40
2024-03-12 17:39:00,SystemResetWarning,0824.5,4.99,000.00,020.5,019.8,000.0,028.8,022.2,12.8,0000.0,0009.96,0003.01,0001.37
2024-03-12 17:40:00,SystemResetWarning,0824.5,5.00,000.00,020.5,019.8,000.0,028.8,022.2,12.8,0000.0,0009.79,0003.01,0001.35
2024-03-12 17:41:00,SystemResetWarning,0824.5,5.01,000.00,020.5,019.8,000.0,028.8,022.2,12.9,0000.0,0008.78,0003.01,0001.34
2024-03-12 17:42:00,SystemResetWarning,0824.5,5.01,000.00,020.5,019.8,000.0,028.8,022.2,12.8,0000.0,0008.53,0003.00,0001.34
2024-03-12 17:43:00,SystemResetWarning,0824.4,5.01,000.00,020.5,019.8,000.0,028.8,022.2,12.9,0000.0,0007.86,0002.95,0001.34
2024-03-12 17:44:00,SystemResetWarning,0824.4,5.00,000.00,020.5,019.8,000.0,028.8,022.2,13.1,0000.0,0007.87,0002.86,0001.34
2024-03-12 17:45:00,SystemResetWarning,0824.4,4.99,000.00,020.5,019.8,000.0,028.8,022.2,13.0,0000.0,0007.69,0002.77,0001.34
2024-03-12 17:46:00,SystemResetWarning,0824.4,5.00,000.00,020.5,019.8,000.0,028.9,022.3,13.0,0000.0,0007.12,0002.73,0001.34
2024-03-12 17:47:00,SystemResetWarning,0824.4,4.99,000.00,020.5,019.9,000.0,028.9,022.3,13.3,0000.0,0007.06,0002.70,0001.33
2024-03-12 17:48:00,SystemResetWarning,0824.4,5.00,000.00,020.5,019.8,000.0,028.9,022.2,13.6,0000.0,0007.53,0002.70,0001.33
2024-03-12 17:49:00,SystemResetWarning,0824.4,5.01,000.00,020.5,019.8,000.0,028.9,022.2,13.6,0000.0,0007.87,0002.68,0001.31
2024-03-12 17:50:00,SystemResetWarning,0824.3,5.01,000.00,020.5,019.8,000.0,028.9,022.2,13.9,0000.0,0008.10,0002.69,0001.31
2024-03-12 17:51:00,SystemResetWarning,0824.3,5.00,000.00,020.5,019.8,000.0,028.9,022.3,14.0,0000.0,0008.26,0002.69,0001.29
2024-03-12 17:52:00,SystemResetWarning,0824.3,4.99,000.00,020.5,019.8,000.0,028.9,022.2,13.9,0000.0,0008.36,0002.70,0001.29
2024-03-12 17:53:00,SystemResetWarning,0824.4,5.00,000.00,020.5,019.8,000.0,028.9,022.2,13.5,0000.0,0008.37,0002.68,0001.29
2024-03-12 17:54:00,SystemResetWarning,0824.4,4.99,000.00,020.5,019.8,000.0,028.9,022.2,13.0,0000.0,0008.41,0002.69,0001.28
2024-03-12 17:55:00,SystemResetWarning,0824.3,4.99,000.00,020.5,019.8,000.0,028.9,022.2,12.6,0000.0,0008.04,0002.69,0001.29
2024-03-12 17:56:00,SystemResetWarning,0824.3,5.00,000.00,020.5,019.8,000.0,028.9,022.3,12.5,0000.0,0007.93,0002.75,0001.29
2024-03-12 17:57:00,SystemResetWarning,0824.3,5.01,000.00,020.5,019.8,000.0,028.9,022.3,12.6,0000.0,0007.89,0002.73,0001.30
2024-03-12 17:58:00,SystemResetWarning,0824.3,5.01,000.00,020.5,019.9,000.0,028.9,022.3,12.9,0000.0,0007.76,0002.72,0001.29
2024-03-12 17:59:00,SystemResetWarning,0824.3,5.00,000.00,020.5,019.9,000.0,028.9,022.3,13.4,0000.0,0008.26,0002.80,0001.28
